This demonstration page uses our WeatherBlox Daily Observations layout. Learn more.

36.17497, -115.13722

Hourly Observations for July 24, 2016

Temp ( °F °C ) Dew Point ( °F °C ) Humidity (%) Winds ( mph kmh ) Pressure ( in mb ) Visibility ( mi km ) Precip ( " mm )
12:53 am 00:53 Clear 95 35 36 2.2 13 13 SSE 5 7 29.59 1002 10 16.09344 0 0
1:53 am 01:53 Clear 91 32.8 37 2.8 15 15 WNW 5 7 29.62 1003 10 16.09344 0 0
2:53 am 02:53 Clear 89 31.7 36 2.2 15 15 NW 6 9 29.62 1003 10 16.09344 0 0
3:53 am 03:53 Clear 86 30 39 3.9 19 19 NW 6 9 29.65 1004 10 16.09344 0 0
4:53 am 04:53 Clear 86 30 40 4.4 20 20 NW 3 6 29.65 1004 10 16.09344 0 0
5:53 am 05:53 Sunny 85 29.4 38 3.3 19 19 NNW 7 11 29.68 1005 10 16.09344 0 0
6:53 am 06:53 Sunny 86 30 43 6.1 22 22 N 5 7 29.71 1006 10 16.09344 0 0
7:53 am 07:53 Sunny 89 31.7 47 8.3 23 23 Calm 29.71 1006 10 16.09344 0 0
8:53 am 08:53 Sunny 94 34.4 45 7.2 18 18 SE 7 11 29.71 1006 10 16.09344 0 0
9:53 am 09:53 Sunny 97 36.1 42 5.6 15 15 SSE 10 17 29.68 1005 10 16.09344 0 0
10:53 am 10:53 Sunny 101 38.3 44 6.7 14 14 SE 10 17 29.68 1005 10 16.09344 0 0
11:53 am 11:53 Sunny 105 40.6 38 3.3 10 10 SSE 12 19 29.65 1004 10 16.09344 0 0
12:53 pm 12:53 Sunny 107 41.7 49 9.4 14 14 S 20 31 29.62 1003 10 16.09344 0 0
1:26 pm 13:26 Sunny 109 43 34 1 7 7 SSW 15 24 29.59 1002 10 16.09344 0 0
1:53 pm 13:53 Sunny 109 42.8 34 1.1 7 7 SSW 15 24 29.59 1002 10 16.09344 0 0
2:53 pm 14:53 Sunny 110 43.3 36 2.2 8 8 SW 15 24 29.59 1002 10 16.09344 0 0
3:00 pm 15:00 Sunny 109 43 37 3 8 8 SW 13 20 29.56 1001 10 16.09344 0 0
3:53 pm 15:53 Sunny 109 42.8 36 2.2 8 8 WSW 10 17 29.56 1001 10 16.09344 0 0
4:53 pm 16:53 Sunny 110 43.3 33 0.6 7 7 SW 16 26 29.5 999 10 16.09344 0 0
5:53 pm 17:53 Sunny 109 42.8 36 2.2 8 8 WSW 16 26 29.53 1000 10 16.09344 0 0
6:53 pm 18:53 Sunny 107 41.7 39 3.9 10 10 SW 15 24 29.53 1000 10 16.09344 0 0
7:53 pm 19:53 Clear 105 40.6 36 2.2 9 9 SW 14 22 29.53 1000 10 16.09344 0 0
8:53 pm 20:53 Clear 102 38.9 38 3.3 11 11 S 12 19 29.56 1001 10 16.09344 0 0
9:53 pm 21:53 Clear 100 37.8 40 4.4 13 13 SSW 10 17 29.59 1002 10 16.09344 0 0
10:53 pm 22:53 Clear 99 37.2 47 8.3 17 17 SSW 12 19 29.62 1003 10 16.09344 0 0
11:53 pm 23:53 Clear 97 36.1 47 8.3 18 18 S 10 17 29.62 1003 10 16.09344 0 0

Powered by AerisWeather